La Crosse, WI

12:17 AM CDT on March 27, 2017 (GMT -0500)
La Crosse Municipal

Weather History for KLSE - August, 2013

Change the Weather History Date:

Sunday, August 4, 2013

  Actual Average Record
Temperature  
Mean Temperature 64 °F 73 °F  
Max Temperature 76 °F 83 °F 99 °F (1896)
Min Temperature 52 °F 63 °F 45 °F (1912)
Degree Days  
Heating Degree Days 1 0  
Month to date heating degree days 1 0  
Since 1 June heating degree days 57  
Since 1 July heating degree days 13 5  
Cooling Degree Days 0 8  
Month to date cooling degree days 12 32  
Year to date cooling degree days 537 519  
Since 1 June cooling degree days 477  
Growing Degree Days 14 (Base 50)    
Moisture  
Dew Point 52 °F    
Average Humidity 63    
Maximum Humidity 93    
Minimum Humidity 33    
Precipitation  
Precipitation T in 0.15 in 2.93 in (1916)
Month to date precipitation 0.02 0.57  
Year to date precipitation 26.13 20.24  
Snow  
Snow 0.00 in 0.00 in 0.00 in (2002)
Month to date snowfall 0.0 0.0  
Since 1 June snowfall T  
Since 1 July snowfall T 0.0  
Snow Depth 0.00 in    
Sea Level Pressure  
Sea Level Pressure 30.16 in    
Wind  
Wind Speed 2 mph (SSE)    
Max Wind Speed 7 mph    
Max Gust Speed 12 mph    
Visibility 10 miles    
Events Rain    
T = Trace of Precipitation, MM = Missing Value Source: NWS Daily Summary

Daily Weather History Graph

Daily Weather History Graph

Search for Another Location

Airport or City:

Trip Planner

Search our weather history database for the weather conditions in past years. The results will help you decide how hot, cold, wet, or windy it might be!

Date:

Astronomy

Aug. 04, 2013 Rise Set
Actual Time 5:57 AM CDT 8:24 PM CDT
Civil Twilight 5:24 AM CDT 8:56 PM CDT
Nautical Twilight 4:44 AM CDT 9:37 PM CDT
Astronomical Twilight 3:58 AM CDT 10:22 PM CDT
Moon 3:57 AM CDT (8/4) 6:47 PM CDT (8/4)
Length of Visible Light 15h 32m
Length of Day
14h 27m
Waning Crescent, 4% of the Moon is Illuminated
Aug 4
Waning Crescent
Aug 6
New
Aug 14
First Quarter
Aug 20
Full
Aug 28
Last Quarter

Hourly Weather History & Observations

Time (CDT) Temp. Dew Point Humidity Pressure Visibility Wind Dir Wind Speed Gust Speed Precip Events Conditions
12:53 AM 55.9 °F 52.0 °F 87% 30.17 in 10.0 mi Calm Calm - N/A   Clear
1:53 AM 55.9 °F 52.0 °F 87% 30.18 in 10.0 mi Calm Calm - N/A   Clear
2:53 AM 55.0 °F 52.0 °F 89% 30.19 in 10.0 mi Calm Calm - N/A   Clear
3:53 AM 54.0 °F 52.0 °F 93% 30.19 in 10.0 mi Calm Calm - N/A   Clear
4:53 AM 53.1 °F 50.0 °F 89% 30.18 in 10.0 mi Calm Calm - N/A   Clear
5:53 AM 53.1 °F 50.0 °F 89% 30.19 in 10.0 mi Calm Calm - N/A   Clear
6:53 AM 54.0 °F 51.1 °F 90% 30.21 in 10.0 mi Calm Calm - N/A   Clear
7:53 AM 59.0 °F 53.1 °F 81% 30.22 in 10.0 mi Calm Calm - N/A   Clear
8:53 AM 63.0 °F 53.1 °F 70% 30.23 in 10.0 mi Calm Calm - N/A   Clear
9:53 AM 68.0 °F 54.0 °F 61% 30.23 in 10.0 mi Calm Calm - N/A   Clear
10:53 AM 71.1 °F 55.0 °F 57% 30.20 in 10.0 mi Calm Calm - N/A   Clear
11:53 AM 73.9 °F 54.0 °F 50% 30.19 in 10.0 mi Calm Calm - N/A   Clear
12:53 PM 75.0 °F 53.1 °F 46% 30.17 in 10.0 mi Variable 3.5 mph - N/A   Scattered Clouds
1:53 PM 75.9 °F 48.0 °F 37% 30.16 in 10.0 mi SSW 6.9 mph - N/A   Partly Cloudy
2:53 PM 75.0 °F 45.0 °F 34% 30.15 in 10.0 mi Calm Calm - N/A   Partly Cloudy
3:53 PM 73.9 °F 48.0 °F 40% 30.16 in 10.0 mi WSW 5.8 mph - 0.00 in Rain Light Rain
4:53 PM 73.9 °F 50.0 °F 43% 30.13 in 10.0 mi WSW 4.6 mph - 0.00 in   Mostly Cloudy
5:53 PM 73.9 °F 48.9 °F 41% 30.12 in 10.0 mi Calm Calm - 0.00 in   Scattered Clouds
6:53 PM 73.0 °F 51.1 °F 46% 30.11 in 10.0 mi Calm Calm - N/A   Mostly Cloudy
7:53 PM 72.0 °F 51.1 °F 48% 30.09 in 10.0 mi Calm Calm - N/A   Overcast
8:53 PM 69.1 °F 57.0 °F 65% 30.08 in 10.0 mi ESE 4.6 mph - N/A   Overcast
9:53 PM 64.0 °F 57.0 °F 78% 30.08 in 10.0 mi ESE 4.6 mph - N/A   Clear
10:53 PM 63.0 °F 57.0 °F 81% 30.07 in 10.0 mi ESE 3.5 mph - N/A   Clear
11:53 PM 61.0 °F 55.9 °F 83% 30.06 in 10.0 mi ESE 4.6 mph - N/A   Clear